Location: *
(44.3925°N, 5.4708°E)
Time: 21:11:43
(UTC+00:00)

Cosmos 1140 Rocket - Pass Details

Date: 18 September 2019
Orbit: 745 x 767 km, 74.1° (Epoch: 17 October)

Event Time Altitude Azimuth Distance (km) Brightness Sun altitude
Rises 20:19:34 0° 334° (NNW) 3,220 7.6 -27.1°
Reaches altitude 10° 20:21:59 10° 329° (NNW) 2,287 6.7 -27.4°
Maximum altitude 20:26:59 50° 256° (WSW) 950 4.1 -28.2°
Enters shadow 20:27:30 48° 235° (SW) 973 4.0 -28.3°
